640  
ASUS44 KSHV 211610  
RWRSHV  
 
THE FOUR STATE AREA WEATHER ROUNDUP  
NATIONAL WEATHER SERVICE SHREVEPORT LA  
1100 AM CDT THU OCT 21 2021  
 
NOTE: "FAIR" INDICATES FEW OR NO CLOUDS BELOW 12000 FEET  
WITH NO SIGNIFICANT WEATHER AND/OR S TO VISIBILITY
.  
 
!LAZ001-LAZ014-TXZ097-211700  
SHREVEPORT...MONROE...TEXARKANA RADIOS  
 
CITY SKY/WX TMP DP RH WIND PRES REMARKS
 
SHREVEPORT FAIR 81 64 56 NW6 30.16R  
MONROE FAIR 80 73 79 W6 30.15S  
NATCHITOCHES FAIR 78 72 81 CALM 30.16S  
TEXARKANA PTSUNNY 77 63 61 NW5 30.17S  

 
 
!LAZ001-LAZ014-TXZ097-211700  
OTHER LOCATIONS...  
 
CITY SKY/WX TMP DP RH WIND PRES REMARKS
 
DOWNTOWN SHV FAIR 80 65 59 NW6 30.16S  
BOSSIER CITY FAIR 79 65 61 NW6 30.16R  
RUSTON FAIR 80 70 71 W6 30.19S  
LITTLE ROCK FAIR 72 50 45 NW15 30.16R  
EL DORADO FAIR 77 65 66 VRB3 30.16S  
JACKSON CLOUDY 75 70 84 SW7 30.16S  
NEW ORLEANS PTSUNNY 80 74 81 NW6 30.15S  
HOUSTON PTSUNNY 81 72 74 E5 30.16R  
LUFKIN FAIR 82 72 71 NE3 30.16F  
TYLER NOT AVBL  
DAL FT WORTH FAIR 74 45 35 NE9 30.20S  

 
 
!TXZ136-TXZ165-211700  
TYLER...LUFKIN RADIOS  
 
CITY SKY/WX TMP DP RH WIND PRES REMARKS
 
TYLER NOT AVBL  
GILMER FAIR N/A N/A N/A NW5 30.18S  
LONGVIEW FAIR 81 63 54 N6 30.16S  
LUFKIN FAIR 82 72 71 NE3 30.16F  

 
 
!TXZ136-TXZ165-211700  
OTHER LOCATIONS...  
 
CITY SKY/WX TMP DP RH WIND PRES REMARKS
 
NACOGDOCHES FAIR 81 71 71 CALM 30.17S  
BEAUMONT CLOUDY 77 75 93 N6 30.15S  
HOUSTON PTSUNNY 81 72 74 E5 30.16R  
COLLEGE STN FAIR 82 69 64 NE5 30.17R  
AUSTIN CLOUDY 75 67 76 N5 30.17S  
DAL FT WORTH FAIR 74 45 35 NE9 30.20S  
TEXARKANA PTSUNNY 77 63 61 NW5 30.17S  
SHREVEPORT FAIR 81 64 56 NW6 30.16R  
FORT POLK FAIR 80 71 74 N5 30.15F  
LAKE CHARLES CLOUDY 78 74 87 NE6 30.16S  

 
 
 
CLICK HERE TO GO TO PREVIOUS BULLETINS.

The Nexlab LA Page
The Nexlab TX Page
The Nexlab AR Page
The Nexlab OK Page Main Text Page